This is the latest recevied weather packets stored in our database for station/object N5PA. If no packets are shown the sender has not sent any weather packets the latest 10 day(s).
| Time | Temp. | Humidity | Pressure | Rain* | Wind** | Luminosity | Snow |
|---|---|---|---|---|---|---|---|
| 1777832107 | 22.22° C | 37% | 1021.6 hPa | 0 mm | - | 1018 W/m² | - |
| 1777831807 | 22.22° C | 39% | 1021.6 hPa | 0 mm | - | 1016 W/m² | - |
| 1777831507 | 22.22° C | 39% | 1021.6 hPa | 0 mm | - | 1014 W/m² | - |
| 1777831206 | 22.22° C | 40% | 1021.7 hPa | 0 mm | - | 1013 W/m² | - |
| 1777830907 | 21.67° C | 40% | 1021.8 hPa | 0 mm | - | 1016 W/m² | - |
| 1777830607 | 22.22° C | 39% | 1021.8 hPa | 0 mm | - | 1014 W/m² | - |
| 1777830307 | 22.22° C | 39% | 1022 hPa | 0 mm | - | 1013 W/m² | - |
| 1777830007 | 22.22° C | 38% | 1022 hPa | 0 mm | - | 1014 W/m² | - |
| 1777829707 | 22.22° C | 36% | 1022.1 hPa | 0 mm | - | 1013 W/m² | - |
| 1777829406 | 22.22° C | 37% | 1022.2 hPa | 0 mm | - | 1011 W/m² | - |
| 1777829107 | 22.22° C | 38% | 1022.3 hPa | 0 mm | - | 1013 W/m² | - |
| 1777828806 | 22.22° C | 36% | 1022.4 hPa | 0 mm | - | 1013 W/m² | - |
| 1777828508 | 22.22° C | 40% | 1022.4 hPa | 0 mm | - | 1013 W/m² | - |
| 1777828206 | 21.67° C | 38% | 1022.4 hPa | 0 mm | - | 1011 W/m² | - |
| 1777827907 | 21.67° C | 41% | 1022.5 hPa | 0 mm | - | 1013 W/m² | - |
| 1777827606 | 22.22° C | 37% | 1022.6 hPa | 0 mm | - | 1011 W/m² | - |
| 1777827306 | 21.67° C | 38% | 1022.6 hPa | 0 mm | - | 1011 W/m² | - |
| 1777827007 | 21.67° C | 35% | 1022.7 hPa | 0 mm | - | 1013 W/m² | - |
| 1777826706 | 21.67° C | 37% | 1022.7 hPa | 0 mm | - | 1014 W/m² | - |
| 1777826407 | 21.67° C | 44% | 1022.8 hPa | 0 mm | - | 1013 W/m² | - |
| 1777826106 | 21.67° C | 43% | 1022.8 hPa | 0 mm | - | 1011 W/m² | - |
| 1777825806 | 21.11° C | 40% | 1022.8 hPa | 0 mm | - | 1016 W/m² | - |
| 1777825507 | 21.11° C | 41% | 1022.9 hPa | 0 mm | - | 1014 W/m² | - |
| 1777825207 | 21.11° C | 41% | 1022.9 hPa | 0 mm | - | 1018 W/m² | - |
| 1777824906 | 21.11° C | 40% | 1023 hPa | 0 mm | - | 1018 W/m² | - |
* Rain latest hour (hover to see other rain measurements)
** Current wind speed in m/s (hover to see current wind gust speed)